FW7017 Weather Reports


time (UTC)temp
C
wind
direction
speed
KPH
gust
KPH
rain 1hr
cm
rain 24hr
cm
rain mn
cm
humidity
%
barometer
mb
20260507030446 18 196 6.4 9.7 0.00 0.00 0.00 73 1016.7
20260507025944 18 188 6.4 8.0 0.00 0.00 0.00 71 1016.6
20260507025441 18 190 6.4 8.0 0.00 0.00 0.00 72 1016.6
20260507024939 18 186 8.0 9.7 0.00 0.00 0.00 73 1016.4
20260507024436 18 189 8.0 9.7 0.00 0.00 0.00 71 1016.5
20260507023931 18 210 8.0 9.7 0.00 0.00 0.00 71 1016.3
20260507023428 19 197 9.7 9.7 0.00 0.00 0.00 71 1016.3
20260507022925 19 203 9.7 11.3 0.00 0.00 0.00 70 1016.1
20260507022423 20 201 8.0 11.3 0.00 0.00 0.00 69 1016.2
20260507021918 20 176 8.0 9.7 0.00 0.00 0.00 67 1016.3
20260507021413 20 193 9.7 9.7 0.00 0.00 0.00 68 1016.3
20260507020912 20 187 8.0 8.0 0.00 0.00 0.00 66 1016.3
20260507020408 20 186 8.0 12.9 0.00 0.00 0.00 65 1016.2
20260507015905 20 175 11.3 11.3 0.00 0.00 0.00 65 1016.1
20260507015403 21 210 6.4 9.7 0.00 0.00 0.00 64 1016.0
20260507014900 21 188 8.0 12.9 0.00 0.00 0.00 64 1016.0
20260507014356 21 189 9.7 9.7 0.00 0.00 0.00 65 1015.9
20260507013853 21 187 8.0 9.7 0.00 0.00 0.00 66 1016.0
20260507013350 21 194 6.4 9.7 0.00 0.00 0.00 67 1015.8
20260507012847 21 203 9.7 9.7 0.00 0.00 0.00 67 1015.9
20260507012343 21 188 6.4 9.7 0.00 0.00 0.00 66 1016.0
20260507011840 21 193 8.0 8.0 0.00 0.00 0.00 68 1016.0
20260507011338 21 182 6.4 9.7 0.00 0.00 0.00 66 1015.9
20260507010837 21 194 6.4 9.7 0.00 0.00 0.00 67 1016.1
20260507010333 21 187 6.4 8.0 0.00 0.00 0.00 66 1016.0
20260507005830 21 206 11.3 11.3 0.00 0.00 0.00 64 1015.9
20260507005327 21 191 6.4 8.0 0.00 0.00 0.00 66 1016.0
20260507004824 21 159 8.0 9.7 0.00 0.00 0.00 64 1015.9
20260507004321 22 180 6.4 9.7 0.00 0.00 0.00 62 1015.8
20260507003818 22 209 9.7 9.7 0.00 0.00 0.00 63 1015.8
20260507003313 22 205 8.0 9.7 0.00 0.00 0.00 62 1015.8
20260507002808 22 202 9.7 9.7 0.00 0.00 0.00 61 1015.8
20260507002306 23 189 8.0 8.0 0.00 0.00 0.00 59 1015.7
20260507001802 23 198 8.0 9.7 0.00 0.00 0.00 58 1015.8
20260507001300 24 163 6.4 9.7 0.00 0.00 0.00 55 1015.7
20260507000756 25 191 8.0 9.7 0.00 0.00 0.00 53 1015.8
20260507000252 24 196 4.8 11.3 0.00 0.00 0.00 54 1015.9
20260506235748 25 180 6.4 9.7 0.00 0.00 0.00 54 1015.8
20260506235244 25 250 3.2 9.7 0.00 0.00 0.00 52 1015.8
20260506234741 25 202 4.8 9.7 0.00 0.00 0.00 52 1015.8
20260506234238 26 185 8.0 9.7 0.00 0.00 0.00 50 1015.8
20260506233736 25 188 6.4 9.7 0.00 0.00 0.00 51 1015.8
20260506233232 25 213 8.0 9.7 0.00 0.00 0.00 52 1015.9
20260506232729 26 228 4.8 12.9 0.00 0.00 0.00 49 1015.9
20260506232224 25 201 6.4 8.0 0.00 0.00 0.00 51 1015.9
20260506231721 24 197 8.0 9.7 0.00 0.00 0.00 53 1016.0
20260506231220 25 174 6.4 11.3 0.00 0.00 0.00 53 1015.9
20260506230716 25 169 8.0 8.0 0.00 0.00 0.00 51 1015.9
20260506230213 24 217 11.3 14.5 0.00 0.00 0.00 51 1016.3
20260506225709 25 186 8.0 9.7 0.00 0.00 0.00 50 1016.3
20260506225206 26 177 4.8 9.7 0.00 0.00 0.00 48 1016.4
20260506224703 25 213 9.7 9.7 0.00 0.00 0.00 51 1016.4
20260506224200 25 219 4.8 9.7 0.00 0.00 0.00 48 1016.3
20260506223656 25 202 8.0 8.0 0.00 0.00 0.00 51 1016.4
20260506223152 25 243 3.2 8.0 0.00 0.00 0.00 51 1016.5
20260506222649 25 209 9.7 9.7 0.00 0.00 0.00 52 1016.6
20260506222145 24 218 6.4 9.7 0.00 0.00 0.00 54 1016.5
20260506221643 24 189 8.0 9.7 0.00 0.00 0.00 53 1016.7
20260506221141 25 167 6.4 9.7 0.00 0.00 0.00 52 1016.5
20260506220637 23 198 6.4 9.7 0.00 0.00 0.00 56 1016.4
20260506220132 23 170 8.0 11.3 0.00 0.00 0.00 55 1016.9
20260506215629 23 164 4.8 9.7 0.00 0.00 0.00 54 1017.0
20260506215125 23 167 8.0 9.7 0.00 0.00 0.00 56 1016.9
20260506214622 23 166 8.0 12.9 0.00 0.00 0.00 56 1017.1
20260506214119 24 184 6.4 9.7 0.00 0.00 0.00 54 1017.0
20260506213617 23 198 6.4 8.0 0.00 0.00 0.00 54 1017.0
20260506213114 23 200 3.2 9.7 0.00 0.00 0.00 57 1017.3
20260506212611 23 169 8.0 8.0 0.00 0.00 0.00 55 1017.3
20260506212106 23 185 8.0 11.3 0.00 0.00 0.00 56 1017.4
20260506211602 23 192 6.4 9.7 0.00 0.00 0.00 57 1017.1
20260506211059 23 189 8.0 11.3 0.00 0.00 0.00 55 1017.3
20260506210556 23 166 9.7 9.7 0.00 0.00 0.00 56 1017.3
20260506210052 23 175 8.0 9.7 0.00 0.00 0.00 55 1017.3
20260506205549 23 207 6.4 8.0 0.00 0.00 0.00 54 1017.4
20260506205044 23 203 6.4 8.0 0.00 0.00 0.00 55 1017.4
20260506204543 23 198 8.0 9.7 0.00 0.00 0.00 57 1017.4
20260506204039 23 151 11.3 11.3 0.00 0.00 0.00 56 1017.3
20260506203538 22 187 6.4 9.7 0.00 0.00 0.00 59 1017.4
20260506203034 22 198 8.0 12.9 0.00 0.00 0.00 58 1017.6
20260506202532 22 189 8.0 9.7 0.00 0.00 0.00 58 1017.6
20260506202028 22 162 8.0 9.7 0.00 0.00 0.00 57 1017.6
20260506201526 22 197 8.0 9.7 0.00 0.00 0.00 59 1017.5
20260506201022 21 156 9.7 9.7 0.00 0.00 0.00 59 1017.6
20260506200518 21 164 9.7 11.3 0.00 0.00 0.00 65 1017.7
20260506200015 21 198 4.8 9.7 0.00 0.00 0.00 62 1017.6
20260506195512 21 196 6.4 12.9 0.00 0.00 0.00 61 1017.8
20260506195008 21 177 6.4 8.0 0.00 0.00 0.00 63 1017.8
20260506194506 20 171 8.0 8.0 0.00 0.00 0.00 63 1017.8
20260506194002 20 205 6.4 9.7 0.00 0.00 0.00 63 1017.9
20260506193459 21 180 6.4 8.0 0.00 0.00 0.00 62 1018.0
20260506192955 21 173 8.0 9.7 0.00 0.00 0.00 62 1017.8
20260506192453 21 182 6.4 9.7 0.00 0.00 0.00 60 1017.9
20260506191949 21 179 8.0 9.7 0.00 0.00 0.00 61 1017.9
20260506191446 21 177 6.4 11.3 0.00 0.00 0.00 61 1017.9
20260506190942 20 171 6.4 11.3 0.00 0.00 0.00 63 1018.1
20260506190439 20 200 6.4 11.3 0.00 0.00 0.00 61 1018.0
20260506185936 20 236 4.8 11.3 0.00 0.00 0.00 60 1018.2
20260506185434 20 179 8.0 8.0 0.00 0.00 0.00 63 1018.1
20260506184930 20 179 6.4 9.7 0.00 0.00 0.00 63 1018.0
20260506184427 20 181 6.4 11.3 0.00 0.00 0.00 62 1018.1
20260506183925 20 180 4.8 8.0 0.00 0.00 0.00 62 1018.3
20260506183420 20 188 8.0 9.7 0.00 0.00 0.00 64 1018.2
20260506182917 19 186 4.8 12.9 0.00 0.00 0.00 64 1018.4
20260506182414 19 184 4.8 8.0 0.00 0.00 0.00 66 1018.3
20260506181912 18 171 6.4 8.0 0.00 0.00 0.00 67 1018.4
20260506181409 18 207 8.0 11.3 0.00 0.00 0.00 64 1018.4
20260506180906 18 191 8.0 9.7 0.00 0.00 0.00 65 1018.4
20260506180402 18 214 8.0 9.7 0.00 0.00 0.00 64 1018.3
20260506175859 18 213 9.7 9.7 0.00 0.00 0.00 66 1018.4
20260506175356 18 185 6.4 9.7 0.00 0.00 0.00 67 1018.5
20260506174853 18 182 4.8 9.7 0.00 0.00 0.00 67 1018.4
20260506174350 18 200 6.4 9.7 0.00 0.00 0.00 68 1018.5
20260506173848 18 231 9.7 14.5 0.00 0.00 0.00 67 1018.5
20260506173344 17 161 9.7 11.3 0.00 0.00 0.00 69 1018.6
20260506172842 17 210 6.4 12.9 0.00 0.00 0.00 69 1018.4
20260506172338 17 212 6.4 9.7 0.00 0.00 0.00 70 1018.5
20260506171835 17 164 9.7 11.3 0.00 0.00 0.00 70 1018.6
20260506171332 17 176 6.4 8.0 0.00 0.00 0.00 72 1018.7
20260506170830 17 193 6.4 8.0 0.00 0.00 0.00 75 1018.5
20260506170326 16 174 8.0 8.0 0.00 0.00 0.00 74 1018.7
20260506165825 16 186 8.0 8.0 0.00 0.00 0.00 74 1018.7
20260506165323 16 181 6.4 6.4 0.00 0.00 0.00 76 1018.8
20260506164819 16 201 6.4 8.0 0.00 0.00 0.00 76 1018.7
20260506164316 16 181 6.4 8.0 0.00 0.00 0.00 75 1018.6
20260506163813 16 166 9.7 11.3 0.00 0.00 0.00 74 1018.6
20260506163307 15 226 6.4 11.3 0.00 0.00 0.00 76 1018.8
20260506162803 15 175 4.8 8.0 0.00 0.00 0.00 79 1018.8
20260506162306 16 198 8.0 9.7 0.00 0.00 0.00 75 1018.6
20260506161758 15 189 6.4 8.0 0.00 0.00 0.00 78 1018.7
20260506161256 15 159 8.0 8.0 0.00 0.00 0.00 82 1018.8
20260506160753 14 178 6.4 11.3 0.00 0.00 0.00 83 1018.8
20260506160250 13 180 6.4 8.0 0.00 0.00 0.00 87 1018.8
20260506155749 13 181 4.8 8.0 0.00 0.00 0.00 90 1019.2
20260506155245 12 196 8.0 8.0 0.00 0.00 0.00 91 1019.2
20260506153352 12 178 6.4 8.0 0.00 0.00 0.00 93 1019.1
20260506152849 12 181 6.4 8.0 0.00 0.00 0.00 94 1018.9
20260506152346 11 167 8.0 9.7 0.00 0.00 0.00 94 1019.1
20260506151844 11 176 6.4 9.7 0.00 0.00 0.00 94 1019.1
20260506151341 11 170 6.4 8.0 0.00 0.00 0.00 94 1018.8
20260506150838 11 172 6.4 8.0 0.00 0.00 0.00 94 1019.1
20260506150335 11 162 8.0 8.0 0.00 0.00 0.00 94 1019.2
20260506145831 11 170 6.4 8.0 0.00 0.00 0.00 94 1018.9
20260506145328 11 171 6.4 8.0 0.00 0.00 0.00 94 1019.3
20260506144826 11 176 6.4 9.7 0.00 0.00 0.00 94 1019.2
20260506144322 11 176 6.4 8.0 0.00 0.00 0.00 94 1019.1
20260506143821 11 170 6.4 8.0 0.00 0.00 0.00 94 1019.3
20260506143317 11 177 6.4 8.0 0.00 0.00 0.00 94 1019.2
20260506142815 11 172 8.0 8.0 0.00 0.00 0.00 94 1019.2
20260506142313 11 179 6.4 8.0 0.00 0.00 0.00 94 1019.2
20260506141811 11 179 6.4 8.0 0.00 0.00 0.00 94 1019.1
20260506141309 11 172 6.4 8.0 0.00 0.00 0.00 94 1019.1
20260506140807 11 180 6.4 8.0 0.00 0.00 0.00 94 1018.9
20260506140303 11 174 6.4 6.4 0.00 0.00 0.00 95 1018.9
20260506135800 11 180 6.4 6.4 0.00 0.00 0.00 95 1018.9
20260506135256 11 178 6.4 6.4 0.00 0.00 0.00 95 1018.7
20260506134753 11 177 6.4 8.0 0.00 0.00 0.00 95 1018.7
20260506134249 11 177 6.4 6.4 0.00 0.00 0.00 94 1018.7
20260506133747 11 174 6.4 8.0 0.00 0.00 0.00 95 1018.6
20260506133243 11 174 4.8 6.4 0.00 0.00 0.00 94 1018.6
20260506132740 11 173 6.4 6.4 0.00 0.00 0.00 95 1018.7
20260506132238 11 180 6.4 8.0 0.00 0.00 0.00 95 1018.4
20260506131736 11 167 6.4 8.0 0.00 0.00 0.00 95 1018.3
20260506131231 11 171 6.4 8.0 0.00 0.00 0.00 95 1018.2
20260506130728 11 176 6.4 6.4 0.00 0.00 0.00 95 1018.4
20260506130225 11 174 6.4 8.0 0.00 0.00 0.00 94 1018.4
20260506125723 11 170 8.0 8.0 0.00 0.00 0.00 94 1018.3
20260506125221 11 176 6.4 8.0 0.00 0.00 0.00 94 1018.2
20260506124719 11 177 6.4 6.4 0.00 0.00 0.00 94 1018.2
20260506124217 11 173 6.4 6.4 0.00 0.00 0.00 94 1018.3
20260506123713 11 178 6.4 8.0 0.00 0.00 0.00 94 1018.1
20260506123213 11 178 6.4 6.4 0.00 0.00 0.00 94 1018.1
20260506122709 11 181 6.4 8.0 0.00 0.00 0.00 94 1018.2
20260506122206 11 180 6.4 8.0 0.00 0.00 0.00 94 1018.2
20260506121704 11 178 6.4 8.0 0.00 0.00 0.00 94 1018.0
20260506121200 11 174 6.4 8.0 0.00 0.00 0.00 95 1018.0
20260506120658 11 174 6.4 6.4 0.00 0.00 0.00 94 1017.9
20260506120155 11 180 6.4 6.4 0.00 0.00 0.00 95 1017.9
20260506115654 11 174 6.4 8.0 0.00 0.00 0.00 95 1017.6
20260506115151 11 180 8.0 8.0 0.00 0.00 0.00 95 1017.9
20260506114648 11 171 6.4 6.4 0.00 0.00 0.00 95 1017.8
20260506114146 11 173 6.4 6.4 0.00 0.00 0.00 95 1017.9
20260506113645 11 169 6.4 8.0 0.00 0.00 0.00 95 1018.0
20260506113141 11 169 6.4 8.0 0.00 0.00 0.00 95 1017.8
20260506112637 11 170 6.4 8.0 0.00 0.00 0.00 95 1018.1
20260506112135 11 173 6.4 8.0 0.00 0.00 0.00 95 1018.0
20260506111633 10 173 6.4 8.0 0.00 0.00 0.00 95 1017.7
20260506111130 10 178 6.4 8.0 0.00 0.00 0.00 95 1017.8
20260506110627 10 165 6.4 8.0 0.00 0.00 0.00 95 1017.7
20260506110125 11 163 6.4 9.7 0.00 0.00 0.00 95 1017.8
20260506105621 11 171 6.4 8.0 0.00 0.00 0.00 95 1017.7
20260506105118 11 169 6.4 8.0 0.00 0.00 0.00 95 1017.6
20260506104616 10 172 6.4 8.0 0.00 0.00 0.00 95 1017.7
20260506104113 10 165 8.0 8.0 0.00 0.00 0.00 95 1017.7
20260506103611 10 172 6.4 8.0 0.00 0.00 0.00 95 1017.6
20260506103108 10 170 6.4 6.4 0.00 0.00 0.00 95 1017.7
20260506102606 10 176 6.4 8.0 0.00 0.00 0.00 95 1017.7
20260506102103 10 186 6.4 8.0 0.00 0.00 0.00 95 1017.9
20260506101559 10 169 6.4 8.0 0.00 0.00 0.00 95 1017.7
20260506101056 10 168 6.4 8.0 0.00 0.00 0.00 95 1017.7
20260506100555 10 167 8.0 8.0 0.00 0.00 0.00 95 1017.7
20260506100052 10 173 6.4 8.0 0.00 0.00 0.00 95 1017.7
20260506095551 10 176 6.4 8.0 0.00 0.00 0.00 95 1017.8
20260506095047 10 175 6.4 8.0 0.00 0.00 0.00 95 1017.7
20260506094545 10 175 6.4 6.4 0.00 0.00 0.00 95 1017.9
20260506094043 10 167 8.0 8.0 0.00 0.00 0.00 95 1017.8
20260506093541 10 169 8.0 8.0 0.00 0.00 0.00 95 1017.9
20260506093038 10 168 8.0 9.7 0.00 0.00 0.00 95 1017.8
20260506092536 10 169 6.4 8.0 0.00 0.00 0.00 95 1017.8
20260506092032 10 169 6.4 8.0 0.00 0.00 0.00 95 1017.8
20260506091531 10 172 8.0 8.0 0.00 0.00 0.00 94 1017.7
20260506091028 10 173 6.4 8.0 0.00 0.00 0.00 94 1017.8
20260506090525 10 174 6.4 8.0 0.00 0.00 0.00 94 1017.6
20260506090021 10 165 8.0 8.0 0.00 0.00 0.00 94 1017.7
20260506085518 11 167 6.4 9.7 0.00 0.00 0.00 94 1017.6
20260506085015 11 174 6.4 8.0 0.00 0.00 0.00 94 1017.6
20260506084512 11 177 6.4 6.4 0.00 0.00 0.00 93 1017.7
20260506084008 11 168 6.4 8.0 0.00 0.00 0.00 93 1017.5
20260506083505 11 176 6.4 8.0 0.00 0.00 0.00 93 1017.7
20260506083002 11 171 8.0 8.0 0.00 0.00 0.00 93 1017.6
20260506082459 11 171 6.4 8.0 0.00 0.00 0.00 93 1017.6
20260506081955 11 176 6.4 8.0 0.00 0.00 0.00 93 1017.5
20260506081454 11 176 6.4 8.0 0.00 0.00 0.00 93 1017.6
20260506080951 11 178 6.4 6.4 0.00 0.00 0.00 93 1017.6
20260506080448 11 169 8.0 8.0 0.00 0.00 0.00 92 1017.5
20260506073431 12 177 6.4 6.4 0.00 0.00 0.00 91 1017.4
20260506072929 12 174 6.4 8.0 0.00 0.00 0.00 91 1017.2
20260506072426 12 170 6.4 8.0 0.00 0.00 0.00 90 1017.3
20260506071924 12 175 6.4 8.0 0.00 0.00 0.00 90 1017.3
20260506071421 12 170 8.0 8.0 0.00 0.00 0.00 90 1017.3
20260506070918 12 165 6.4 8.0 0.00 0.00 0.00 89 1017.2
20260506070415 12 175 6.4 8.0 0.00 0.00 0.00 89 1017.1
20260506062352 13 173 6.4 6.4 0.00 0.00 0.00 88 1016.8
20260506061848 13 174 6.4 8.0 0.00 0.00 0.00 89 1017.1
20260506061344 13 177 6.4 6.4 0.00 0.00 0.00 89 1016.9
20260506060843 13 176 6.4 8.0 0.00 0.00 0.00 88 1016.8
20260506060341 13 188 6.4 8.0 0.00 0.00 0.00 88 1016.8
20260506051312 13 182 8.0 8.0 0.00 0.00 0.00 87 1016.6
20260506050810 13 177 8.0 8.0 0.00 0.00 0.00 86 1016.7
20260506050308 13 173 8.0 8.0 0.00 0.00 0.00 87 1016.6
20260506044758 13 178 6.4 8.0 0.00 0.00 0.00 85 1016.4
20260506044255 13 179 6.4 8.0 0.00 0.00 0.00 87 1016.4
20260506043752 13 173 8.0 8.0 0.00 0.00 0.00 86 1016.4
20260506043249 13 168 6.4 8.0 0.00 0.00 0.00 85 1016.3
20260506042748 13 178 6.4 6.4 0.00 0.00 0.00 86 1016.3
20260506042247 13 175 8.0 8.0 0.00 0.00 0.00 85 1016.2
20260506041745 13 172 6.4 8.0 0.00 0.00 0.00 84 1016.2
20260506041241 13 176 8.0 9.7 0.00 0.00 0.00 85 1016.1
20260506040739 13 173 6.4 8.0 0.00 0.00 0.00 85 1016.1
20260506040236 13 172 8.0 8.0 0.00 0.00 0.00 85 1015.9
20260506035732 13 180 6.4 8.0 0.00 0.00 0.00 86 1016.0
20260506035230 13 182 6.4 8.0 0.00 0.00 0.00 86 1015.9
20260506034726 13 178 8.0 8.0 0.00 0.00 0.00 86 1015.8
20260506034223 13 177 8.0 8.0 0.00 0.00 0.00 86 1015.8
20260506033721 13 188 6.4 8.0 0.00 0.00 0.00 85 1015.8
20260506033218 13 193 8.0 8.0 0.00 0.00 0.00 86 1015.7
20260506032714 13 178 8.0 8.0 0.00 0.00 0.00 86 1015.6
20260506032212 13 187 6.4 8.0 0.00 0.00 0.00 86 1015.5
20260506031708 13 190 6.4 8.0 0.00 0.00 0.00 86 1015.5
20260506031206 14 174 6.4 8.0 0.00 0.00 0.00 87 1015.3
20260506030704 14 180 6.4 8.0 0.00 0.00 0.00 87 1015.3